�N����,����,�~����,�C��,���x,�C��,����,���ϕ���,�ő�u�ԕ���,�ő厞����,���˗�,�I�_���x,�n�����x,�ő啗���N��,DTYPE
"20/08/29","00:10",0.0,26.8,91.7,1005.7,299.8,0.7,1.1,329.5,0.00,25.4,28.2,"00:02:00",1
"20/08/29","00:20",0.0,26.6,91.8,1005.7,283.1,0.7,0.9,280.9,0.00,25.2,27.9,"00:12:48",1
"20/08/29","00:30",0.0,26.5,91.9,1005.7,279.4,0.7,1.3,265.7,0.00,25.1,27.9,"00:22:24",1
"20/08/29","00:40",0.0,26.4,92.0,1006.0,319.9,0.8,1.3,323.2,0.00,25.0,27.7,"00:39:12",1
"20/08/29","00:50",0.0,26.3,92.1,1006.0,301.9,0.7,1.2,319.4,0.00,25.0,27.9,"00:40:08",1
"20/08/29","01:00",0.0,26.3,92.2,1006.0,316.1,0.8,1.2,332.1,0.00,25.0,27.7,"00:57:04",1
"20/08/29","01:10",0.0,26.3,92.3,1006.0,317.3,0.8,1.3,338.9,0.00,25.0,27.6,"01:09:20",1
"20/08/29","01:20",0.0,26.3,92.3,1005.5,328.1,1.0,1.3,331.6,0.00,25.0,27.7,"01:19:28",1
"20/08/29","01:30",0.0,26.3,92.4,1006.0,293.9,0.8,1.1,331.0,0.00,25.0,27.7,"01:20:24",1
"20/08/29","01:40",0.0,26.2,92.5,1005.5,277.5,0.7,1.1,265.8,0.00,24.9,27.8,"01:30:16",1
"20/08/29","01:50",0.0,26.2,92.6,1005.7,282.0,0.7,1.7,318.1,0.00,24.9,27.7,"01:47:20",1
"20/08/29","02:00",0.0,26.2,92.6,1005.7,323.9,0.8,1.3,353.5,0.00,24.9,27.6,"01:51:20",1
"20/08/29","02:10",0.0,26.1,92.7,1005.5,294.1,0.5,1.0,326.7,0.00,24.9,27.7,"02:09:36",1
"20/08/29","02:20",0.0,26.1,92.8,1005.7,320.0,0.6,1.2,319.3,0.00,24.9,27.7,"02:10:56",1
"20/08/29","02:30",0.0,26.2,92.8,1005.7,280.6,0.7,1.1,304.1,0.00,25.0,27.5,"02:26:56",1
"20/08/29","02:40",0.0,26.3,92.8,1005.7,332.6,1.1,1.7,342.9,0.00,25.1,27.4,"02:34:24",1
"20/08/29","02:50",0.0,26.1,92.9,1005.5,307.8,0.8,1.6,332.5,0.00,24.9,27.5,"02:40:56",1
"20/08/29","03:00",0.0,26.1,92.9,1005.7,299.6,0.7,1.6,333.1,0.00,24.9,27.4,"02:58:16",1
"20/08/29","03:10",0.0,26.2,93.0,1006.0,284.7,0.8,1.1,315.6,0.00,25.0,27.5,"03:00:16",1
"20/08/29","03:20",0.0,26.1,93.0,1005.7,317.7,0.7,1.2,321.2,0.00,24.9,27.3,"03:12:32",1
"20/08/29","03:30",0.0,26.0,93.1,1005.7,274.2,0.6,1.0,257.6,0.00,24.8,27.3,"03:25:12",1
"20/08/29","03:40",0.0,25.9,93.1,1005.5,274.4,0.7,1.0,297.3,0.00,24.7,27.4,"03:31:28",1
"20/08/29","03:50",0.0,25.8,93.2,1005.7,309.0,0.5,0.9,311.4,0.00,24.7,27.2,"03:44:40",1
"20/08/29","04:00",0.0,25.8,93.2,1006.0,290.1,0.5,0.9,302.5,0.00,24.7,27.2,"03:56:56",1
"20/08/29","04:10",0.0,25.7,93.3,1005.7,303.4,0.2,0.6,307.1,0.00,24.6,27.2,"04:01:04",1
"20/08/29","04:20",0.0,25.6,93.3,1006.0,297.5,0.5,1.2,335.0,0.00,24.5,27.2,"04:18:40",1
"20/08/29","04:30",0.0,25.5,93.4,1005.7,310.4,0.6,1.0,339.3,0.00,24.4,27.2,"04:28:00",1
"20/08/29","04:40",0.0,25.6,93.4,1005.7,260.7,0.6,1.2,254.0,0.00,24.5,27.2,"04:38:32",1
"20/08/29","04:50",0.0,25.6,93.5,1006.0,282.2,0.6,1.2,345.3,0.00,24.5,27.2,"04:40:02",1
"20/08/29","05:00",0.0,25.6,93.5,1006.0,305.4,0.5,1.2,346.1,0.00,24.5,27.2,"04:50:08",1
"20/08/29","05:10",0.0,25.6,93.5,1006.4,332.3,0.7,1.0,329.0,0.00,24.5,27.1,"05:03:52",1
"20/08/29","05:20",0.0,25.5,93.5,1006.7,330.9,0.7,1.3,344.4,0.00,24.4,26.9,"05:10:56",1
"20/08/29","05:30",0.0,25.4,93.5,1006.2,310.9,0.5,0.9,322.0,0.00,24.3,27.0,"05:25:12",1
"20/08/29","05:40",0.0,25.3,93.6,1006.4,297.5,0.5,1.0,319.2,0.00,24.2,27.0,"05:38:24",1
"20/08/29","05:50",0.0,25.2,93.7,1006.2,286.2,0.6,0.9,322.1,0.00,24.2,27.0,"05:40:24",1
"20/08/29","06:00",0.0,25.2,93.8,1006.7,287.9,0.6,1.0,241.1,0.00,24.2,27.0,"05:51:12",1
"20/08/29","06:10",0.0,25.4,93.8,1006.7,278.6,0.6,0.9,255.5,0.00,24.4,26.9,"06:00:24",1
"20/08/29","06:20",0.0,25.8,93.8,1006.7,301.1,0.5,0.8,333.9,0.00,24.8,26.8,"06:19:28",1
"20/08/29","06:30",0.0,26.4,93.7,1006.2,304.1,0.5,1.4,343.3,0.01,25.3,26.7,"06:28:56",1
"20/08/29","06:40",0.0,27.1,93.6,1006.2,354.8,0.2,0.8,334.5,0.03,26.0,26.9,"06:30:08",1
"20/08/29","06:50",0.0,27.6,93.5,1006.7,339.4,0.5,0.9,343.7,0.04,26.5,26.7,"06:43:36",1
"20/08/29","07:00",0.0,28.2,92.9,1006.4,188.3,0.1,0.4,333.2,0.06,27.0,26.9,"06:50:08",1
"20/08/29","07:10",0.0,28.8,92.3,1006.2,336.3,0.1,0.8,326.4,0.08,27.5,27.0,"07:06:16",1
"20/08/29","07:20",0.0,28.2,92.3,1006.0,331.4,0.5,1.2,337.5,0.10,26.9,27.0,"07:15:44",1
"20/08/29","07:30",0.0,28.9,92.1,1006.0,96.6,0.2,0.8,139.6,0.13,27.5,27.2,"07:25:12",1
"20/08/29","07:40",0.0,28.7,90.5,1006.2,170.5,0.3,0.9,204.1,0.15,27.0,27.3,"07:32:24",1
"20/08/29","07:50",0.0,29.2,89.7,1006.9,140.9,0.6,1.1,123.5,0.18,27.4,27.7,"07:47:44",1
"20/08/29","08:00",0.0,29.1,87.5,1006.9,140.6,1.0,2.0,62.9,0.21,26.8,27.7,"07:57:52",1
"20/08/29","08:10",0.0,29.9,85.0,1007.1,225.6,0.7,1.7,205.9,0.23,27.1,27.8,"08:05:28",1
"20/08/29","08:20",0.0,30.3,81.6,1006.9,159.2,1.1,2.6,171.8,0.26,26.8,28.1,"08:14:40",1
"20/08/29","08:30",0.0,30.9,77.7,1006.9,154.8,0.7,1.6,185.0,0.27,26.6,28.2,"08:20:02",1
"20/08/29","08:40",0.0,30.6,76.7,1006.9,177.3,1.2,3.2,212.1,0.16,26.1,28.4,"08:31:04",1
"20/08/29","08:50",0.0,30.2,77.0,1007.1,171.1,1.5,3.2,196.4,0.17,25.8,28.2,"08:47:20",1
"20/08/29","09:00",0.0,30.3,75.7,1006.7,129.4,0.7,2.1,102.5,0.13,25.6,28.4,"08:55:12",1
"20/08/29","09:10",0.0,30.7,74.6,1006.9,220.9,1.2,2.5,233.4,0.22,25.7,28.6,"09:07:46",1
"20/08/29","09:20",0.0,30.8,75.4,1006.2,195.9,0.3,1.0,118.9,0.16,26.0,28.7,"09:10:40",1
"20/08/29","09:30",0.0,31.3,73.1,1006.7,174.7,1.0,2.5,198.9,0.31,25.9,28.7,"09:28:16",1
"20/08/29","09:40",0.0,32.4,71.2,1007.1,129.6,0.5,1.4,219.7,0.37,26.5,29.2,"09:30:08",1
"20/08/29","09:50",0.0,32.2,69.0,1006.9,124.7,0.7,2.4,119.1,0.15,25.8,29.1,"09:43:20",1
"20/08/29","10:00",0.0,31.8,69.2,1006.9,128.3,0.8,1.7,120.2,0.17,25.5,29.2,"09:58:00",1
"20/08/29","10:10",0.0,31.4,70.3,1006.9,211.7,1.1,2.4,228.0,0.20,25.4,29.3,"10:04:00",1
"20/08/29","10:20",0.0,32.2,69.8,1006.9,2.2,0.3,1.2,153.1,0.27,26.0,29.6,"10:10:02",1
"20/08/29","10:30",0.0,32.8,68.4,1006.9,59.6,0.8,1.7,61.9,0.39,26.3,29.7,"10:26:32",1
"20/08/29","10:40",0.0,33.1,65.6,1007.1,178.2,1.1,2.6,215.3,0.31,25.8,29.9,"10:33:36",1
"20/08/29","10:50",0.0,34.1,64.7,1006.9,164.4,0.6,1.7,71.9,0.55,26.5,30.1,"10:44:16",1
"20/08/29","11:00",0.0,34.3,60.8,1007.4,175.0,1.3,3.3,223.8,0.54,25.7,30.4,"10:58:24",1
"20/08/29","11:10",0.0,34.4,60.7,1007.4,167.4,1.3,3.7,227.2,0.51,25.7,30.8,"11:03:36",1
"20/08/29","11:20",0.0,34.2,59.8,1007.1,181.6,1.7,3.4,227.8,0.60,25.3,31.1,"11:14:16",1
"20/08/29","11:30",0.0,34.1,61.2,1007.1,111.9,1.1,2.9,112.6,0.43,25.6,31.1,"11:23:44",1
"20/08/29","11:40",0.0,35.3,57.4,1007.1,64.9,0.7,1.8,86.7,0.60,25.6,31.4,"11:31:52",1
"20/08/29","11:50",0.0,35.4,56.2,1007.4,71.6,0.8,2.2,353.7,0.52,25.4,31.7,"11:40:40",1
"20/08/29","12:00",0.0,35.1,56.0,1007.1,176.0,1.0,2.2,119.0,0.39,25.0,31.9,"11:54:16",1
"20/08/29","12:10",0.0,35.0,55.9,1007.1,183.1,0.5,2.2,203.2,0.35,24.9,32.1,"12:07:48",1
"20/08/29","12:20",0.0,35.3,56.0,1006.9,339.5,1.0,2.6,356.4,0.50,25.2,32.3,"12:16:00",1
"20/08/29","12:30",0.0,36.2,53.3,1006.9,62.4,0.6,1.4,356.6,0.59,25.2,32.4,"12:20:40",1
"20/08/29","12:40",0.0,36.2,52.2,1006.9,192.8,1.7,3.9,218.3,0.59,24.9,32.9,"12:35:12",1
"20/08/29","12:50",0.0,36.4,51.3,1006.7,145.9,1.5,3.6,194.1,0.58,24.8,32.9,"12:43:20",1
"20/08/29","13:00",0.0,36.9,52.1,1006.9,140.7,1.1,2.9,138.0,0.57,25.5,33.2,"12:53:04",1
"20/08/29","13:10",0.0,36.8,51.3,1006.7,174.1,1.3,2.9,212.5,0.56,25.1,33.4,"13:03:12",1
"20/08/29","13:20",0.0,36.4,50.8,1006.9,202.2,2.1,3.4,227.6,0.56,24.6,33.7,"13:11:12",1
"20/08/29","13:30",0.0,36.9,50.0,1006.4,191.8,1.5,2.8,193.0,0.56,24.8,33.9,"13:20:32",1
"20/08/29","13:40",0.0,37.3,48.2,1006.7,220.4,0.6,1.7,220.7,0.54,24.5,34.1,"13:34:08",1
"20/08/29","13:50",0.0,37.3,48.2,1006.7,113.2,1.2,2.7,118.0,0.52,24.5,34.3,"13:45:36",1
"20/08/29","14:00",0.0,37.2,47.4,1006.4,8.6,1.3,2.5,340.6,0.52,24.2,34.2,"13:55:12",1
"20/08/29","14:10",0.0,36.2,50.7,1006.2,0.0,1.2,2.2,350.2,0.27,24.4,34.1,"14:02:16",1
"20/08/29","14:20",0.0,37.0,48.5,1006.2,0.9,1.0,2.1,355.2,0.49,24.4,34.2,"14:19:04",1
"20/08/29","14:30",0.0,38.1,47.7,1006.0,165.9,0.6,1.8,204.6,0.49,25.1,34.2,"14:26:48",1
"20/08/29","14:40",0.0,38.4,44.8,1006.2,311.5,0.7,2.5,347.3,0.37,24.3,34.5,"14:32:56",1
"20/08/29","14:50",0.0,38.4,46.5,1006.0,199.6,0.5,1.4,135.5,0.42,24.9,34.3,"14:40:02",1
"20/08/29","15:00",0.0,38.4,45.0,1006.0,201.3,0.8,2.0,345.7,0.42,24.4,34.4,"14:59:36",1
"20/08/29","15:10",0.0,37.8,46.4,1005.7,212.0,1.5,3.5,231.3,0.42,24.4,34.4,"15:04:32",1
"20/08/29","15:20",0.0,37.8,46.2,1005.5,251.7,1.2,3.2,227.0,0.41,24.3,34.6,"15:16:32",1
"20/08/29","15:30",0.0,38.0,45.6,1005.7,272.7,0.8,2.8,215.4,0.39,24.3,34.6,"15:20:56",1
"20/08/29","15:40",0.0,38.2,47.5,1005.7,226.9,0.7,1.7,236.8,0.37,25.1,34.7,"15:34:56",1
"20/08/29","15:50",0.0,38.2,46.5,1005.2,218.0,0.7,1.9,227.9,0.33,24.8,34.6,"15:48:24",1
"20/08/29","16:00",0.0,37.2,48.1,1005.0,99.0,0.6,2.0,113.1,0.10,24.4,34.3,"15:55:44",1
"20/08/29","16:10",0.0,36.3,48.7,1005.0,102.3,1.0,2.4,94.2,0.08,23.8,34.4,"16:03:44",1
"20/08/29","16:20",0.0,36.4,50.1,1004.5,104.2,1.1,2.5,103.1,0.18,24.4,34.1,"16:11:12",1
"20/08/29","16:30",0.0,36.4,49.4,1004.5,45.0,1.1,2.8,31.9,0.10,24.1,34.0,"16:24:00",1
"20/08/29","16:40",0.0,35.4,52.1,1004.5,90.6,1.2,2.8,124.5,0.02,24.1,33.8,"16:38:56",1
"20/08/29","16:50",1.0,34.7,57.3,1003.6,98.3,1.1,2.8,83.1,0.03,25.1,33.6,"16:45:36",1
"20/08/29","17:00",9.8,29.9,64.9,1001.7,103.7,2.6,7.8,140.9,0.02,22.6,32.1,"16:52:08",1
"20/08/29","17:10",0.4,29.1,71.1,1000.8,336.0,0.7,2.6,10.9,0.03,23.4,31.5,"17:08:32",1
"20/08/29","17:20",0.0,28.5,78.8,1001.0,343.0,1.0,2.9,346.2,0.02,24.5,31.3,"17:12:16",1
"20/08/29","17:30",0.0,28.2,82.0,1001.2,273.3,0.7,2.4,310.9,0.01,24.9,31.2,"17:23:28",1
"20/08/29","17:40",0.0,28.3,83.9,1001.5,261.6,0.7,2.9,232.8,0.00,25.4,30.9,"17:39:12",1
"20/08/29","17:50",0.0,28.3,84.5,1002.4,238.6,1.3,3.1,218.2,0.00,25.5,30.9,"17:41:04",1
"20/08/29","18:00",0.0,28.3,85.2,1002.4,299.3,0.6,1.6,6.0,0.00,25.6,30.8,"17:57:20",1
"20/08/29","18:10",0.0,28.1,85.8,1002.2,307.4,0.7,1.7,352.3,0.00,25.5,30.7,"18:03:04",1
"20/08/29","18:20",0.0,28.0,86.4,1002.2,258.7,0.6,1.6,232.6,0.00,25.6,30.7,"18:16:56",1
"20/08/29","18:30",0.0,28.1,87.1,1002.9,321.2,1.1,3.3,0.5,0.00,25.8,30.7,"18:27:44",1
"20/08/29","18:40",0.0,27.9,87.5,1002.9,326.9,1.2,2.5,356.5,0.00,25.7,30.4,"18:33:04",1
"20/08/29","18:50",0.0,27.9,88.0,1003.1,260.8,0.7,1.7,313.9,0.00,25.8,30.4,"18:41:44",1
"20/08/29","19:00",0.0,27.8,88.2,1002.9,312.4,0.7,1.4,319.8,0.00,25.7,30.6,"18:54:08",1
"20/08/29","19:10",0.0,27.8,88.6,1003.4,259.3,0.8,2.4,223.9,0.00,25.8,30.3,"19:08:32",1
"20/08/29","19:20",0.0,27.8,88.8,1003.8,306.2,1.1,2.0,347.6,0.00,25.8,30.3,"19:14:56",1
"20/08/29","19:30",0.0,27.9,89.0,1004.1,353.8,0.7,1.4,344.2,0.00,26.0,30.0,"19:20:08",1
"20/08/29","19:40",0.0,27.7,89.1,1004.3,303.0,0.7,1.4,335.1,0.00,25.8,30.1,"19:32:32",1
"20/08/29","19:50",0.0,27.6,89.5,1004.5,334.7,1.0,1.6,326.5,0.00,25.8,29.8,"19:44:08",1
"20/08/29","20:00",0.0,27.7,89.6,1004.5,327.9,0.8,2.1,343.4,0.00,25.9,29.8,"19:56:56",1
"20/08/29","20:10",0.0,27.6,89.8,1004.5,287.6,0.3,0.9,269.4,0.00,25.8,30.0,"20:08:24",1
"20/08/29","20:20",0.0,27.4,90.0,1004.8,290.8,0.7,1.4,332.1,0.00,25.7,29.9,"20:10:56",1
"20/08/29","20:30",0.0,27.4,90.2,1004.8,332.1,1.3,1.9,340.2,0.00,25.7,29.7,"20:21:36",1
"20/08/29","20:40",0.0,27.3,90.4,1004.8,321.1,1.0,2.5,343.3,0.00,25.6,29.7,"20:30:40",1
"20/08/29","20:50",0.0,27.3,90.5,1005.0,298.7,0.7,1.2,327.0,0.00,25.6,29.7,"20:49:12",1
"20/08/29","21:00",0.0,27.3,90.6,1005.2,315.6,0.7,1.3,309.1,0.00,25.7,29.5,"20:53:28",1
"20/08/29","21:10",0.0,27.2,90.7,1005.0,288.8,0.7,1.4,323.2,0.00,25.6,29.2,"21:00:02",1
"20/08/29","21:20",0.0,27.0,90.8,1005.0,312.1,1.1,2.1,343.7,0.00,25.4,29.5,"21:10:08",1
"20/08/29","21:30",0.0,26.9,90.9,1005.5,282.2,0.5,1.0,261.7,0.00,25.3,29.3,"21:22:00",1
"20/08/29","21:40",0.0,26.9,91.0,1005.2,290.8,0.8,1.6,318.1,0.00,25.3,29.3,"21:30:32",1
"20/08/29","21:50",0.0,26.8,91.2,1005.2,315.9,1.1,2.1,336.0,0.00,25.3,29.2,"21:48:16",1
"20/08/29","22:00",0.0,26.7,91.2,1005.2,278.6,0.8,2.0,324.1,0.00,25.2,29.2,"21:50:08",1
"20/08/29","22:10",0.0,26.5,91.3,1005.7,302.2,0.8,1.3,345.6,0.00,25.0,29.0,"22:02:40",1
"20/08/29","22:20",0.0,26.5,91.4,1005.7,302.7,1.0,1.9,323.2,0.00,25.0,28.9,"22:15:04",1
"20/08/29","22:30",0.0,26.5,91.5,1005.7,291.0,0.8,2.4,323.2,0.00,25.0,28.9,"22:20:40",1
"20/08/29","22:40",0.0,26.4,91.5,1005.7,289.1,0.7,1.3,303.4,0.00,24.9,29.0,"22:39:28",1
"20/08/29","22:50",0.0,26.3,91.6,1005.5,331.9,1.6,3.4,345.2,0.00,24.9,28.9,"22:42:48",1
"20/08/29","23:00",0.0,26.4,91.6,1005.7,333.9,1.1,2.8,338.7,0.00,25.0,28.8,"22:55:20",1
"20/08/29","23:10",0.0,26.3,91.6,1005.5,335.3,1.1,2.2,343.7,0.00,24.9,28.6,"23:04:24",1
"20/08/29","23:20",0.0,26.3,91.6,1005.5,345.8,1.1,2.6,338.5,0.00,24.9,28.8,"23:12:00",1
"20/08/29","23:30",0.0,26.2,91.5,1005.2,331.5,1.2,2.0,334.4,0.00,24.7,28.8,"23:20:02",1
"20/08/29","23:40",0.0,26.1,91.5,1005.5,324.5,1.2,2.0,331.2,0.00,24.6,28.5,"23:30:24",1
"20/08/29","23:50",0.0,26.1,91.5,1005.2,316.3,1.0,1.7,320.5,0.00,24.6,28.4,"23:46:08",1
"20/08/29","24:00",0.0,26.0,91.5,1005.5,306.7,0.7,1.3,317.4,0.00,24.5,28.3,"23:52:48",1
